Location: Unspecified
(0.0000°N, 0.0000°E)
Time: 23:08:42
(UTC+00:00)

S-56A Canister/Altair - Pass Details

Date: 04 October 2020
Orbit: 633 x 2499 km, 38.9° (Epoch: 28 October)

Event Time Altitude Azimuth Distance (km) Brightness Sun altitude
Rises 22:37:28 0° 289° (WNW) 4,520 - -71.6°
Reaches altitude 10° 22:41:40 10° 275° (W) 3,185 - -72.6°
Maximum altitude 22:47:14 22° 227° (SW) 1,974 - -74.0°
Drops below altitude 10° 22:51:34 10° 176° (S) 2,397 - -75.0°
Sets 22:54:15 0° 159° (SSE) 3,157 - -75.6°
